Regional Weather Roundup
Issued by NWS

Current Version | Previous Version | Text Only | Print | Product List | Glossary On
Versions: 1 2 3 4 5 6 7 8 9 10 11 12 13 14 15 16 17 18 19 20 21 22 23 24 25 26 27 28 29 30 31 32 33 34 35 36 37 38 39 40 41 42 43 44 45 46 47 48 49 50
000
ASUS45 KREV 250110
RWRNV
NEVADA REGIONAL WEATHER ROUNDUP
NATIONAL WEATHER SERVICE RENO NV
600 PM PDT SUN MAY 24 2015

NOTE: "FAIR" INDICATES FEW OR NO CLOUDS BELOW 12,000 FEET WITH NO
SIGNIFICANT WEATHER AND/OR OBSTRUCTIONS TO VISIBILITY.

NVZ001-003-004-250200-
WESTERN NEVADA

CITY           SKY/WX    TMP DP  RH WIND       PRES   REMARKS
RENO           PTSUNNY   74  41  30 N13       29.92F
CARSON CITY    FAIR      70  41  35 W13       29.95S
MINDEN         PTSUNNY   68  39  34 W21       29.96
SLIDE MTN        N/A     46  39  76 W9          N/A
PYRAMID LAKE     N/A     72 N/A N/A N3          N/A
FALLON         MOSUNNY   73  43  33 NE5       29.90F
LOVELOCK       MOSUNNY   67  49  52 S13       29.90F
HAWTHORNE      SUNNY     73  43  33 W13       29.91F
$$

NVZ002-CAZ072-073-250200-
NORTHERN AND CENTRAL SIERRA

CITY           SKY/WX    TMP DP  RH WIND       PRES   REMARKS
S. LAKE TAHOE  LGT RAIN  52  47  83 CALM      30.07R
TRUCKEE        PTSUNNY   59  48  67 S9G16     30.04F
SQUAW VLY 8000   N/A     45  43  93 W6          N/A
BLUE CANYON    PTSUNNY   61  46  57 SW7       30.05F
MAMMOTH LAKES  CLOUDY    57  41  54 NW13      30.06S
BRIDGEPORT     LGT RAIN  51  42  71 CALM      30.05F
$$

NVZ030-031-036-250200-
NORTHERN NEVADA

CITY           SKY/WX    TMP DP  RH WIND       PRES   REMARKS
ELKO           CLOUDY    54  49  83 SW6       29.95F
WINNEMUCCA     PTSUNNY   69  46  43 NW7       29.92F
WENDOVER       CLOUDY    64  45  48 W12       29.90F
$$

NVZ035-037-250200-
CENTRAL NEVADA

CITY           SKY/WX    TMP DP  RH WIND       PRES   REMARKS
ELY            CLOUDY    52  41  66 N17G30    30.01F
EUREKA           N/A     58  40  51 N14       29.99R
$$

NVZ013-014-250200-
SOUTH CENTRAL NEVADA

CITY           SKY/WX    TMP DP  RH WIND       PRES   REMARKS
TONOPAH        PTSUNNY   68  36  30 N14G25    29.95F
$$

NVZ017-020-022-250200-
SOUTHERN NEVADA

CITY           SKY/WX    TMP DP  RH WIND       PRES   REMARKS
LAS VEGAS      PTSUNNY   81  43  26 SW7       29.75F
N. LAS VEGAS   PTSUNNY   80  41  24 VRB3      29.78F
NELLIS AFB     PTSUNNY   80  45  28 SW8       29.76F
HENDERSON      CLOUDY    79  46  31 SW3       29.83F
MERCURY        NOT AVBL
$$



USA.gov is the U.S. government's official web portal to all federal, state and local government web resources and services.